This is the latest recevied weather packets stored in our database for station/object K8JCL-13. If no packets are shown the sender has not sent any weather packets the latest 10 day(s).
| Time | Temp. | Humidity | Pressure | Rain* | Wind** | Luminosity | Snow |
|---|---|---|---|---|---|---|---|
| 1777693046 | 6.11° C | 82% | 1018.1 hPa | 0 mm | - | 0 W/m² | - |
| 1777692744 | 6.11° C | 83% | 1018 hPa | 0 mm | - | 0 W/m² | - |
| 1777692440 | 6.11° C | 82% | 1018.1 hPa | 0 mm | - | 0 W/m² | - |
| 1777692136 | 6.11° C | 82% | 1018 hPa | 0 mm | - | 0 W/m² | - |
| 1777691834 | 6.11° C | 83% | 1018 hPa | 0 mm | - | 0 W/m² | - |
| 1777691532 | 5.56° C | 84% | 1017.9 hPa | 0 mm | - | 0 W/m² | - |
| 1777691231 | 6.11° C | 85% | 1017.9 hPa | 0 mm | - | 0 W/m² | - |
| 1777690928 | 6.11° C | 83% | 1017.7 hPa | 0 mm | - | 0 W/m² | - |
| 1777690643 | 5.56° C | 83% | 1017.6 hPa | 0 mm | - | 0 W/m² | - |
| 1777690323 | 5.56° C | 84% | 1017.9 hPa | 0 mm | - | 0 W/m² | - |
| 1777690020 | 5.56° C | 86% | 1017.8 hPa | 0 mm | - | 0 W/m² | - |
| 1777689718 | 5.56° C | 86% | 1017.9 hPa | 0 mm | - | 0 W/m² | - |
| 1777689416 | 5.56° C | 85% | 1017.8 hPa | 0 mm | - | 0 W/m² | - |
| 1777689113 | 5.56° C | 85% | 1018 hPa | 0 mm | - | 0 W/m² | - |
| 1777688810 | 5.56° C | 84% | 1017.9 hPa | 0 mm | - | 0 W/m² | - |
| 1777688507 | 6.11° C | 83% | 1017.8 hPa | 0 mm | - | 0 W/m² | - |
| 1777688205 | 6.11° C | 82% | 1017.7 hPa | 0 mm | - | 0 W/m² | - |
| 1777686993 | 7.78° C | 73% | 1017.4 hPa | 0 mm | - | 0 W/m² | - |
| 1777686689 | 7.78° C | 73% | 1017.2 hPa | 0 mm | - | 0 W/m² | - |
| 1777686387 | 7.78° C | 73% | 1017.4 hPa | 0 mm | - | 0 W/m² | - |
| 1777686084 | 7.78° C | 73% | 1017.2 hPa | 0 mm | - | 0 W/m² | - |
| 1777685780 | 7.78° C | 72% | 1017 hPa | 0 mm | - | 0 W/m² | - |
| 1777685476 | 7.78° C | 72% | 1017.1 hPa | 0 mm | - | 0 W/m² | - |
| 1777685173 | 7.78° C | 72% | 1016.6 hPa | 0 mm | - | 0 W/m² | - |
| 1777684871 | 7.78° C | 74% | 1017 hPa | 0 mm | - | 0 W/m² | - |
* Rain latest hour (hover to see other rain measurements)
** Current wind speed in m/s (hover to see current wind gust speed)